GFSFLT1_con_mucape_000.txt.gz
CAPE
83 18 137 137 192 732 838 93 21 94 85 46 4 1 0 0 0 0 0 0 0 11 19 44 88 94 64 37 54 38 6 0
11 31 0 4 368 490 329 75 0 0 0 0 0 0 0 0 0 0 0 0 0 0 4 25 50 71 87 123 106 101 64 28
0 0 0 0 32 96 3 0 0 0 0 0 0 0 0 0 0 0 0 0 0 0 0 0 0 0 16 41 90 105 129 93
0 0 0 0 0 0 0 0 0 0 0 0 0 0 0 0 0 0 0 0 0 0 0 0 0 0 0 0 9 25 56 112
0 0 0 0 0 0 0 0 0 0 0 0 0 0 0 0 1 0 0 0 0 0 0 0 0 0 0 0 0 1 15 18
0 0 0 0 0 0 0 0 0 0 0 0 0 0 0 0 0 0 0 0 0 0 0 0 0 0 0 0 0 0 3 27
0 0 0 0 0 0 0 0 0 0 0 0 0 0 0 0 0 0 0 0 0 0 0 0 0 0 0 0 1 4 8 13
0 0 0 0 0 0 0 0 0 0 0 0 0 0 0 0 0 0 0 0 0 0 0 0 0 0 1 5 13 19 0 0
2 0 0 0 3 5 1 9 6 1 0 0 0 0 0 0 0 0 0 0 0 0 0 2 10 20 45 53 20 0 5 3
0 0 0 0 0 4 10 9 0 0 0 0 0 0 0 0 0 0 0 0 0 0 10 9 0 4 0 0 0 0 1 0
0 2 1 8 6 0 0 0 0 0 0 0 0 0 0 0 0 0 0 3 25 12 3 0 0 0 0 0 0 0 0 0
4 0 0 0 0 0 0 0 0 0 0 0 0 0 0 0 0 0 9 22 14 14 11 4 0 0 0 0 0 0 0 0
18 7 0 4 1 0 0 0 0 2 8 0 0 0 0 0 18 19 22 36 39 34 0 0 0 0 0 0 0 0 0 0
2 12 8 1 1 0 5 7 0 0 0 0 0 4 14 18 23 27 42 34 30 26 0 0 0 0 0 0 0 0 0 0
15 12 17 6 0 0 5 0 0 0 0 0 1 12 30 25 21 22 22 19 0 0 0 0 0 0 0 0 0 0 0 0
0 0 0 0 0 0 0 0 0 0 0 0 0 1 3 3 0 0 0 4 0 0 0 1 0 0 1 0 0 11 25 25
0 0 0 0 0 0 0 0 0 0 3 0 0 0 0 0 0 0 0 0 0 0 0 0 1 1 0 0 0 6 11 16
0 0 0 0 0 21 0 0 0 1 1 0 0 0 0 0 0 0 0 0 0 0 2 5 9 11 0 0 0 0 0 0
0 0 0 0 23 11 0 0 0 2 2 4 0 0 0 0 0 1 2 1 2 4 13 7 0 0 0 0 0 0 0 0

GFSFLT1_con_mucape_003.txt.gz
CAPE
219 448 194 199 239 280 680 812 8 41 98 90 19 2 3 0 0 2 7 20 30 61 100 267 276 262 338 381 576 330 384 313
340 8 18 110 443 356 422 204 113 54 36 0 0 0 0 0 4 0 11 6 0 0 1 67 129 149 320 368 377 385 373 387
0 0 1 45 465 492 249 78 55 0 0 0 0 0 0 3 7 0 0 0 0 0 0 0 19 13 181 272 373 331 308 377
0 1 24 51 57 58 32 52 45 0 0 0 0 0 0 0 0 0 0 0 0 0 0 0 0 36 36 210 185 231 167 195
0 0 0 6 0 0 0 0 0 0 0 0 0 0 0 0 0 0 0 0 0 0 0 0 0 2 46 54 17 132 118 77
0 0 0 0 0 0 0 0 0 0 0 0 0 0 2 15 0 0 0 0 0 0 0 0 0 0 7 28 52 15 18 46
0 0 0 0 0 0 0 0 0 0 0 1 5 0 0 0 0 0 0 0 0 0 0 0 11 23 15 30 41 48 20 26
0 0 0 0 0 0 0 0 1 0 4 0 0 0 0 0 0 0 0 0 0 1 4 12 7 19 44 77 82 27 18 8
0 0 0 4 0 0 0 3 14 0 0 0 0 0 0 0 0 0 0 0 5 6 13 26 39 44 80 77 49 67 10 17
1 3 7 0 0 0 0 0 0 0 0 0 0 0 0 0 0 0 0 2 1 11 27 34 68 79 62 61 63 43 71 54
39 36 30 29 17 7 9 6 10 9 6 0 0 1 2 1 0 0 5 17 29 41 79 61 54 28 12 13 24 51 16 47
60 43 24 38 42 49 30 32 14 1 13 9 10 0 0 0 4 17 18 15 41 46 35 33 34 12 5 35 14 0 0 50
39 38 26 30 27 25 32 3 3 4 14 20 0 0 3 9 22 17 23 41 39 44 33 35 37 41 34 41 50 0 0 0
19 23 42 31 23 3 0 0 0 0 0 0 0 0 1 9 13 23 29 44 49 48 56 42 32 29 18 22 33 41 44 38
13 8 0 0 3 3 5 0 6 12 0 0 1 0 2 7 15 22 27 22 2 0 9 9 13 13 14 21 17 5 4 20
7 3 0 0 0 0 0 26 31 31 14 10 7 2 6 11 13 4 0 0 2 6 13 20 29 30 14 3 1 0 2 10
0 0 0 1 0 0 1 55 53 34 23 34 17 15 18 13 0 0 0 6 7 12 24 34 40 29 0 0 0 0 0 0
0 0 0 0 1 5 30 61 56 37 72 53 33 24 24 4 0 6 8 16 26 29 34 35 31 30 0 0 0 0 0 0
2 9 2 0 0 1 45 81 76 81 69 49 42 32 31 21 11 13 17 30 33 35 29 25 26 11 0 0 0 0 0 0

GFSFLT1_con_mucape_006.txt.gz
CAPE
119 42 118 302 364 316 872 583 9 21 157 103 14 15 26 52 40 6 0 23 8 29 14 72 209 147 80 120 199 95 89 85
251 360 265 352 550 272 179 262 150 73 95 6 0 0 0 6 3 0 0 2 0 0 0 0 0 0 2 13 2 0 2 51
146 127 311 625 391 222 128 62 44 46 25 3 0 0 0 0 6 0 0 0 0 0 0 0 0 0 0 0 17 0 0 0
4 40 53 107 159 112 72 49 53 62 43 3 0 0 0 0 0 0 0 0 0 0 0 0 0 0 0 0 0 0 0 0
0 0 0 0 1 2 11 4 1 3 2 0 0 0 0 0 0 0 0 0 0 0 0 0 0 0 0 0 0 0 0 0
0 0 0 0 0 5 0 0 0 0 0 0 0 0 0 0 0 0 0 0 0 0 0 0 0 0 0 4 4 11 1 2
0 0 0 0 0 0 0 0 0 0 0 0 1 0 0 0 0 0 0 0 0 0 0 0 1 8 13 28 16 18 16 12
8 4 1 0 0 0 0 0 0 0 6 1 0 1 0 0 0 0 0 0 0 0 0 1 9 27 32 22 24 13 10 2
0 0 0 0 0 0 10 0 0 0 0 0 1 0 0 0 0 0 0 0 0 0 2 1 2 0 0 0 3 24 19 17
0 14 31 22 17 24 14 12 2 3 18 1 0 0 1 12 1 0 0 0 0 0 0 0 0 0 2 3 14 23 15 12
33 23 20 17 10 9 41 24 11 33 11 5 10 11 12 0 0 2 0 0 0 0 1 0 6 4 14 10 1 8 12 14
29 5 0 0 0 0 2 5 21 25 14 11 1 0 0 1 1 0 0 0 0 0 0 2 10 20 23 20 0 11 0 0
0 1 5 9 13 1 5 9 8 5 2 3 0 6 0 0 0 0 0 0 10 17 37 31 42 42 47 31 42 54 42 30
0 0 0 0 0 0 0 0 4 2 3 0 3 5 0 0 0 12 9 6 22 12 0 2 1 2 7 12 16 19 1 0
2 0 0 0 0 0 4 8 32 26 17 14 0 6 0 0 2 0 0 1 0 0 3 12 19 17 14 6 0 0 0 0
2 0 0 0 0 1 0 8 41 37 24 5 13 1 0 0 0 0 0 0 2 2 2 10 17 20 6 1 0 0 0 0
0 0 0 0 4 1 0 1 39 107 58 41 51 19 9 1 0 0 0 3 0 2 12 14 14 12 5 0 0 0 0 0
0 0 0 2 0 0 0 1 7 73 60 78 63 24 14 11 2 0 0 0 0 11 21 21 1 0 0 0 0 0 0 0
0 0 0 0 0 0 0 0 0 0 38 112 16 22 2 17 0 0 0 0 2 15 22 1 0 0 0 0 0 0 0 0

GFSFLT1_con_mucape_009.txt.gz
CAPE
168 153 129 112 228 440 313 329 192 66 21 64 26 33 0 0 0 0 0 0 1 0 0 0 0 0 0 0 0 0 0 0
7 36 98 246 626 393 229 83 42 51 111 68 38 31 3 0 0 0 11 14 0 0 0 0 0 0 0 0 0 0 0 0
112 134 178 190 172 141 83 66 53 49 51 45 37 21 5 1 0 0 0 0 0 0 0 0 0 0 0 0 0 0 0 0
188 182 140 263 192 116 114 92 57 44 43 38 20 21 2 0 0 0 0 0 0 0 0 0 0 0 0 0 0 0 0 0
11 60 14 23 13 7 0 1 4 0 0 0 0 0 0 0 0 0 0 0 0 0 0 0 0 0 0 0 0 0 0 0
0 0 0 0 0 0 0 0 0 0 0 0 0 0 0 0 0 0 0 0 0 0 0 0 0 0 0 0 0 0 0 6
0 0 0 0 0 0 0 0 0 0 0 0 0 0 0 0 0 0 0 0 2 2 0 0 0 0 0 0 1 5 14 18
0 0 0 0 0 0 0 0 0 0 0 0 0 0 3 7 9 7 0 6 8 0 0 0 0 0 0 1 9 13 12 22
0 1 0 8 4 0 0 0 0 0 0 0 0 0 3 14 5 3 1 0 0 0 0 0 0 0 0 0 3 4 21 14
0 0 0 1 4 3 0 0 0 2 14 18 25 39 34 21 23 15 1 0 0 0 0 0 0 0 3 11 9 4 1 0
0 2 18 13 2 0 0 0 4 0 0 13 40 57 44 28 16 0 0 0 0 0 0 0 0 1 7 21 7 0 1 2
0 1 4 0 3 2 0 0 0 0 0 2 4 2 0 0 0 0 0 0 0 0 0 1 11 25 34 43 45 33 38 27
4 0 0 2 0 0 0 0 0 0 0 0 0 0 0 0 0 0 0 0 0 0 0 0 0 0 0 0 4 4 3 5
0 0 0 0 0 0 0 0 0 0 18 38 41 43 20 5 13 3 0 0 0 0 0 0 0 0 0 1 1 0 0 0
0 0 0 0 0 0 0 0 0 4 37 35 31 34 31 20 0 6 1 0 0 0 0 0 0 0 0 0 0 0 4 3
0 0 0 0 0 0 0 0 0 0 8 25 42 38 20 9 27 28 0 0 0 0 0 0 0 0 0 0 0 2 2 0
0 0 0 0 0 0 0 0 0 0 0 0 8 42 26 23 24 0 0 0 0 4 0 0 0 0 0 0 0 0 0 0
0 0 0 0 0 0 0 0 0 0 0 1 10 18 5 4 1 9 25 4 0 0 0 0 0 1 1 1 0 0 0 0
0 0 0 0 0 0 0 0 0 0 0 0 1 13 9 12 14 10 16 0 0 0 0 0 0 0 0 0 0 0 0 0

GFSFLT1_con_mucape_012.txt.gz
CAPE
338 356 541 726 925 639 401 354 208 84 186 40 14 21 27 16 0 0 0 4 17 24 27 19 0 0 0 0 0 0 0 0
225 119 426 906 694 428 301 227 90 35 50 38 38 55 29 11 3 7 1 8 0 0 0 0 0 0 0 0 0 0 0 0
121 231 484 418 300 89 67 95 78 50 38 37 56 43 32 20 15 10 0 0 0 0 0 0 0 0 0 0 0 0 0 0
132 118 60 85 54 13 0 0 0 22 41 48 68 45 5 9 0 0 2 0 0 0 0 0 0 0 0 0 0 0 0 0
49 30 19 9 0 0 0 0 0 0 0 0 0 0 0 0 0 0 0 0 0 0 0 2 4 2 0 0 0 0 0 0
0 0 0 0 0 0 0 0 0 0 0 0 0 0 0 0 0 0 0 2 4 9 10 10 7 0 0 0 0 0 0 5
0 0 0 0 0 0 0 0 0 0 0 0 0 0 0 0 4 5 10 3 4 8 0 0 0 0 0 0 0 0 4 22
0 0 0 0 0 0 0 0 0 0 0 0 0 0 0 9 10 25 45 13 9 3 0 0 0 0 0 0 0 0 0 4
0 0 0 0 0 0 0 0 0 0 0 0 0 7 17 31 14 15 7 1 0 0 0 0 0 0 0 0 0 0 1 0
0 0 0 0 7 7 1 10 2 0 0 0 0 11 3 10 0 0 0 0 0 0 0 0 0 0 0 4 6 0 0 0
0 0 1 0 5 6 15 24 23 10 0 0 0 0 0 0 0 0 4 0 0 3 0 0 0 0 0 2 4 0 6 10
2 5 3 9 10 11 4 0 0 0 0 0 0 0 3 9 11 18 9 0 3 0 0 0 0 0 0 0 0 0 0 0
8 14 22 15 11 2 0 0 0 0 0 0 8 32 51 39 43 12 2 17 2 0 2 0 0 0 0 0 0 0 0 0
4 5 8 1 0 0 0 0 0 0 0 0 0 7 16 47 63 32 18 8 8 0 0 0 0 0 0 0 0 0 0 0
0 0 0 0 0 0 0 0 0 0 0 0 0 0 4 21 27 10 12 25 0 4 0 0 0 0 0 0 0 0 0 0
0 0 0 0 0 0 0 0 0 0 0 0 0 0 4 27 46 38 24 0 0 0 1 5 2 0 0 1 0 0 0 0
1 0 0 0 0 0 0 0 0 0 0 0 0 0 8 7 0 17 19 20 1 4 4 0 0 0 1 0 0 0 0 0
0 0 0 0 0 0 0 0 0 0 0 0 0 2 0 0 0 0 24 14 11 7 0 0 0 0 0 0 0 0 0 0
0 0 0 0 0 0 0 0 0 0 0 0 0 0 0 0 0 4 5 0 0 0 0 0 0 0 0 0 0 0 0 0

GFSFLT1_con_mucape_018.txt.gz
CAPE
173 236 175 177 377 458 308 140 66 53 118 87 33 44 16 14 29 44 42 3 4 6 3 8 0 0 0 0 0 0 0 0
339 265 212 237 378 430 226 140 115 78 32 56 10 20 35 13 0 3 0 0 0 0 0 0 0 0 0 0 0 0 0 0
492 460 379 421 325 217 131 86 54 45 56 16 4 7 0 0 0 0 0 0 0 0 0 0 0 0 0 0 4 1 0 0
307 82 14 2 3 13 54 7 5 8 0 0 0 0 0 0 0 0 0 0 0 0 0 0 1 0 0 1 0 0 0 0
0 0 0 0 0 0 0 0 0 0 0 0 0 0 0 0 0 0 0 0 0 0 2 3 2 0 0 0 0 0 0 0
0 1 0 0 0 0 0 0 0 0 0 0 0 0 0 0 0 0 0 1 2 3 0 0 0 0 0 0 0 0 0 0
0 0 0 0 0 0 0 0 0 0 0 0 0 0 0 0 0 0 1 0 0 0 0 0 0 0 0 0 0 0 0 0
0 0 1 3 0 0 0 0 0 0 0 0 0 0 0 0 0 0 0 0 0 0 0 0 6 12 4 2 1 1 0 0
3 5 0 0 0 0 0 0 0 0 2 0 0 0 0 0 0 0 0 0 0 0 0 1 6 0 3 0 0 0 0 0
0 0 0 0 0 0 0 7 0 2 0 0 0 0 0 0 0 0 0 0 0 0 5 9 2 0 0 0 0 0 0 0
0 0 0 0 0 0 8 7 0 0 0 0 0 0 0 0 0 0 0 0 0 6 10 0 13 15 0 0 0 0 0 0
0 2 7 12 7 6 0 0 1 0 0 0 0 0 0 0 0 0 0 0 0 8 15 18 20 11 5 0 0 0 0 0
8 18 28 36 39 54 32 6 1 0 0 0 0 0 0 0 0 0 0 0 0 0 4 8 8 2 0 0 0 0 0 0
11 15 27 37 45 30 8 1 0 0 0 0 0 0 0 0 0 0 0 0 0 0 3 3 0 0 0 2 0 0 0 0
2 5 12 15 12 2 4 0 0 0 0 0 0 0 0 0 0 0 0 0 0 3 7 10 2 2 0 0 0 0 0 0
2 4 12 2 2 0 0 0 0 0 0 0 0 0 0 0 0 0 0 0 0 8 15 2 3 2 1 0 0 0 0 0
6 18 17 13 8 0 0 0 0 0 0 0 0 0 0 0 0 0 0 0 0 0 1 4 6 0 0 0 0 0 0 0
22 33 27 17 0 0 0 0 0 0 0 0 0 0 0 0 0 0 0 0 0 0 0 0 0 0 0 0 0 0 0 0
31 30 8 0 0 0 0 0 0 0 0 0 0 0 0 0 0 0 0 0 7 0 0 0 0 0 0 0 0 0 0 0

GFSFLT1_con_mucape_024.txt.gz
CAPE
312 385 541 738 867 789 672 495 157 26 8 38 14 22 25 17 42 31 5 0 0 0 0 0 0 0 0 0 0 0 0 0
413 535 635 757 752 632 646 306 536 228 164 45 8 0 3 0 0 0 0 0 0 0 0 0 0 0 0 0 0 0 0 1
429 677 707 520 564 601 634 727 757 439 78 4 3 14 4 0 0 0 0 0 0 0 0 0 0 0 0 0 0 0 0 5
629 741 798 693 645 924 866 725 456 0 0 0 5 3 0 0 0 0 0 0 0 0 0 0 0 0 0 1 2 0 0 0
718 764 814 932 768 684 75 2 0 0 0 0 0 0 2 0 0 0 0 0 0 0 0 0 0 0 2 6 0 0 0 0
178 128 141 154 178 9 0 0 0 0 0 0 0 0 0 0 0 0 0 0 0 0 0 0 7 20 11 0 0 3 0 1
1 2 0 0 0 0 0 0 0 0 0 0 0 0 0 0 0 0 0 0 3 12 23 29 26 14 2 2 15 1 16 9
0 0 0 0 0 0 0 0 0 0 0 1 2 0 0 0 0 0 0 0 0 0 0 1 14 33 6 56 45 58 53 40
0 0 0 0 0 0 0 0 0 0 6 5 14 0 0 0 0 0 0 0 0 0 0 1 25 47 50 67 83 63 61 45
0 0 0 0 0 0 0 0 0 3 9 21 4 16 0 0 0 0 0 0 0 0 0 5 29 60 81 86 90 72 76 57
0 0 0 0 0 0 0 0 2 4 6 9 34 3 0 0 0 0 0 0 0 0 0 0 13 47 79 81 69 70 57 63
0 0 0 0 0 0 1 0 2 0 5 5 1 0 0 0 0 0 0 0 0 0 2 4 16 43 49 67 72 86 53 32
0 0 0 0 0 2 2 2 4 7 0 0 0 0 0 0 0 0 0 1 2 3 9 15 26 38 61 63 63 6 15 32
0 0 0 0 5 5 5 1 1 0 0 0 0 0 0 0 0 0 2 6 3 5 14 32 29 43 25 0 1 3 0 8
0 0 0 0 6 7 4 0 2 0 0 0 0 0 0 0 0 0 5 5 3 8 30 24 23 25 26 9 0 7 22 10
0 0 0 3 9 13 6 8 7 0 0 0 0 0 0 0 0 2 4 2 5 20 28 36 35 25 1 0 0 0 0 0
0 0 0 3 11 9 19 3 6 0 0 0 0 0 0 0 0 0 0 4 12 14 22 35 27 0 0 0 0 0 2 0
0 0 0 7 17 21 12 1 0 0 0 0 0 0 0 0 0 0 1 5 13 12 35 31 23 0 0 0 0 0 0 0
0 0 0 16 19 18 7 2 1 0 0 0 0 0 0 0 0 0 4 11 11 24 39 20 1 0 0 0 0 0 0 0

GFSFLT1_con_mucape_027.txt.gz
CAPE
579 353 341 375 770 1014 849 713 338 139 135 22 22 0 14 31 18 4 0 0 0 0 0 0 0 0 0 1 0 0 0 0
729 704 783 974 1143 953 998 666 405 472 325 161 39 11 2 0 0 0 0 0 0 0 0 0 0 0 0 0 0 0 0 0
805 915 990 1165 1005 908 907 689 623 659 463 397 155 90 29 0 0 0 0 0 0 0 0 0 0 0 0 0 0 0 0 0
937 1122 882 756 686 790 840 810 967 696 122 48 84 71 0 0 0 0 0 0 0 0 0 0 0 0 0 0 1 6 0 3
1147 1219 942 703 838 825 870 674 324 22 2 25 34 38 46 31 9 0 0 0 0 0 0 0 0 1 3 6 4 7 15 0
1077 1095 1161 991 784 764 455 67 8 1 0 2 19 2 0 0 0 0 0 0 0 0 0 5 7 5 9 12 16 24 34 32
479 482 493 609 617 30 2 1 0 0 0 0 0 0 0 0 0 0 0 0 0 0 0 0 0 1 18 21 36 54 56 45
28 10 19 59 2 0 0 0 0 0 0 0 0 2 9 12 0 0 0 0 0 0 0 0 0 0 3 30 44 87 60 64
0 0 0 0 0 0 0 0 0 0 0 0 0 2 8 1 0 0 0 0 0 0 0 0 0 2 15 46 64 46 78 100
0 0 0 0 0 0 0 1 0 0 0 0 0 15 18 10 0 0 0 0 0 0 0 0 0 0 20 68 74 57 82 97
0 0 0 0 0 1 1 0 0 0 0 0 2 12 0 0 0 0 0 0 0 0 0 0 1 7 19 49 55 75 82 102
0 0 0 0 0 2 0 0 0 0 0 0 8 0 0 0 0 0 0 0 0 1 0 1 9 16 23 43 55 56 83 90
2 0 0 0 0 0 0 0 0 2 1 0 3 0 0 0 0 0 0 0 2 2 0 5 12 19 17 37 38 29 2 19
11 4 3 0 0 0 0 0 5 2 0 5 0 0 0 0 0 0 0 0 3 2 2 11 17 25 30 14 25 24 21 27
27 6 5 0 0 0 0 1 6 5 18 7 0 0 0 0 0 0 0 1 4 3 8 17 25 28 21 22 18 25 25 23
9 2 5 0 0 0 0 0 6 14 32 28 0 0 0 0 0 0 0 5 1 7 12 19 21 21 8 3 11 4 10 22
0 7 1 0 0 0 0 2 14 26 28 0 0 0 0 0 0 0 1 0 2 10 16 28 16 13 0 0 0 0 0 6
0 0 0 2 0 0 0 6 20 23 28 0 0 0 0 0 0 0 0 1 9 20 25 27 29 18 0 0 0 0 0 0
0 0 0 2 0 0 3 15 15 25 8 0 0 0 0 0 0 0 0 6 19 19 29 28 25 8 0 0 0 0 0 0

GFSFLT1_con_mucape_030.txt.gz
CAPE
149 74 96 278 628 573 541 746 447 256 105 83 61 2 0 0 0 3 0 0 0 0 0 0 0 0 0 0 0 0 0 0
403 331 364 700 1030 704 598 536 314 203 143 131 35 0 0 0 0 0 0 0 0 0 0 0 0 0 0 0 0 0 0 0
734 654 867 1305 993 669 487 547 303 366 416 186 69 4 0 0 0 0 0 0 0 0 0 0 0 0 0 0 0 0 0 0
829 859 1108 1100 1043 863 548 487 449 508 484 209 58 9 0 0 0 0 0 0 0 0 0 0 0 0 0 0 0 0 0 0
838 1019 1070 921 886 839 760 722 712 637 350 30 10 0 0 1 1 0 0 0 0 0 0 0 0 0 0 0 0 0 0 0
942 1130 851 625 793 875 1027 924 657 71 8 17 8 6 3 1 0 0 2 0 0 0 0 0 0 0 0 0 1 0 1 0
852 1050 803 933 845 966 727 558 14 0 0 2 2 0 0 0 2 11 12 3 0 0 0 0 0 0 0 0 2 18 2 0
817 787 810 631 595 365 80 0 0 0 0 0 0 0 0 0 2 2 5 3 0 0 0 0 0 0 0 0 7 1 5 8
412 372 332 467 116 5 0 0 0 0 0 0 0 0 0 0 1 15 0 0 0 0 0 0 0 0 0 0 21 30 20 9
51 12 48 37 0 0 0 0 0 0 0 0 0 0 0 11 13 7 0 0 0 0 0 0 0 0 0 0 0 31 34 25
0 0 0 0 0 0 0 0 0 0 0 0 0 0 0 6 13 0 0 0 0 0 0 0 0 0 1 9 10 1 6 7
3 0 0 0 0 0 0 0 0 0 0 0 1 6 2 9 6 0 0 0 0 0 0 0 0 0 4 3 0 0 1 0
4 0 0 0 0 0 0 0 0 0 0 0 5 13 13 12 9 0 0 0 0 0 0 0 0 1 4 1 2 0 14 15
35 0 0 0 0 0 0 0 0 0 0 3 11 23 15 2 12 0 0 0 0 0 0 0 0 6 2 0 1 0 8 6
94 17 11 2 0 0 0 0 0 0 18 23 24 17 0 4 0 0 0 0 0 0 0 0 9 13 4 0 0 1 1 0
36 105 68 65 33 16 2 0 0 0 27 16 15 23 7 0 0 0 0 0 0 0 0 7 9 10 2 0 0 0 0 0
19 65 154 112 94 68 16 1 0 0 12 7 19 1 0 1 0 0 0 0 0 0 5 6 10 6 0 0 0 0 0 0
0 30 58 151 126 75 41 3 0 0 11 19 23 12 0 0 0 0 0 0 0 0 4 4 9 4 0 0 0 0 0 0
0 0 9 66 99 53 53 25 1 11 17 19 0 0 1 0 0 0 0 0 0 7 6 3 5 2 0 0 0 0 0 0

GFSFLT1_con_mucape_033.txt.gz
CAPE
128 160 235 201 188 153 355 364 316 187 42 12 9 0 0 0 0 0 0 0 0 0 0 0 0 0 0 0 0 0 0 0
45 29 206 211 301 380 456 425 299 124 13 20 14 0 16 0 0 0 0 0 0 0 0 0 0 0 0 0 0 0 0 0
141 113 335 338 394 438 456 446 386 207 37 69 39 33 22 0 0 0 0 0 0 0 0 0 0 0 0 0 0 0 0 0
390 690 629 555 567 631 508 482 306 204 137 175 83 11 0 0 0 0 0 0 0 0 0 0 0 0 0 0 0 0 0 0
522 763 913 815 734 677 721 487 250 136 246 238 10 0 0 0 0 0 0 0 0 0 0 0 0 0 0 0 0 0 0 0
756 796 993 980 926 785 556 357 303 237 288 68 5 0 0 0 0 0 0 0 0 3 0 0 0 0 0 0 0 0 0 0
804 848 943 939 888 728 552 469 495 449 232 31 8 2 0 0 0 0 0 10 7 3 0 0 0 0 0 0 0 0 0 0
845 966 918 853 682 541 651 696 336 42 0 0 0 0 0 0 1 4 21 13 14 7 0 0 0 0 0 0 0 0 0 0
887 975 812 596 558 575 553 245 21 0 0 0 0 0 0 0 0 0 4 17 26 10 0 0 0 0 0 0 0 0 1 7
837 800 699 542 253 322 195 28 0 0 0 0 0 2 0 0 2 13 8 23 22 4 0 0 0 0 0 0 0 0 0 0
553 455 511 384 252 115 33 1 0 0 0 0 0 0 2 6 13 10 31 10 5 0 0 0 0 0 0 0 0 0 0 0
283 135 62 116 104 24 0 0 0 0 0 0 0 8 8 11 11 12 19 12 0 0 0 0 0 0 0 0 0 0 0 0
283 84 4 0 0 0 0 0 0 0 0 0 7 33 16 14 7 28 1 2 0 0 0 0 0 0 0 0 0 0 0 0
213 109 18 0 0 0 0 0 1 0 0 0 30 50 13 19 16 1 0 3 0 0 0 0 0 0 0 0 0 0 0 0
167 85 27 8 24 36 41 36 39 1 0 5 22 36 42 11 3 0 12 0 7 0 0 0 0 0 0 0 0 3 0 0
162 99 55 34 46 58 49 55 64 48 66 13 18 38 29 11 0 0 0 0 0 0 0 0 0 0 0 0 2 8 0 0
0 10 55 50 51 56 46 71 59 56 32 56 38 36 37 5 0 0 0 0 0 0 0 0 0 0 0 0 2 3 1 0
0 0 11 76 95 76 69 59 58 69 87 60 53 50 46 24 2 0 0 0 0 0 0 1 0 0 3 2 5 1 0 0
0 0 0 2 84 115 76 48 59 76 52 50 49 57 27 9 2 0 0 0 0 0 0 0 0 1 3 0 0 0 0 0

GFSFLT1_con_mucape_039.txt.gz
CAPE
244 227 158 196 253 306 287 359 338 33 66 161 295 406 377 172 19 0 0 0 0 0 0 0 0 0 0 0 0 0 0 0
495 349 350 463 381 418 398 372 273 119 203 256 297 395 264 102 0 0 0 0 0 0 0 0 0 0 0 0 0 0 0 0
685 511 544 594 469 527 452 300 172 224 274 357 355 241 109 5 0 0 0 0 0 0 0 0 0 0 0 0 0 0 0 0
699 571 535 597 548 530 398 175 203 267 312 261 126 49 15 20 12 14 20 4 0 0 0 0 0 0 0 0 0 0 0 0
639 459 405 523 565 457 254 146 211 242 218 144 94 71 52 49 40 45 46 0 0 0 0 0 0 0 0 0 0 0 0 0
551 498 535 575 666 612 319 236 165 183 229 205 206 97 76 80 85 69 27 6 0 0 0 0 1 0 6 17 0 0 0 0
322 365 468 500 536 585 288 259 238 326 291 312 262 113 97 101 121 22 15 4 0 0 1 1 14 29 7 8 2 0 0 0
266 328 291 345 402 368 291 258 327 404 414 402 297 239 122 119 54 13 5 3 3 7 16 13 21 23 0 17 8 1 0 0
335 338 333 275 239 280 261 433 486 515 509 401 313 274 204 129 68 44 50 39 41 38 29 30 7 0 0 12 0 0 0 0
420 493 461 428 308 336 419 556 557 560 517 398 228 218 357 295 76 89 61 43 34 39 10 13 10 0 6 0 0 0 0 0
416 570 682 690 629 705 802 751 598 555 465 405 308 391 308 122 104 68 56 43 29 18 5 4 3 7 4 0 0 0 0 0
747 800 780 834 900 1017 927 660 533 633 655 444 224 105 96 70 41 36 34 38 22 4 11 5 8 6 3 0 0 0 0 0
856 868 876 836 925 1062 692 512 708 800 650 341 177 104 89 77 61 43 42 12 1 3 1 1 7 6 0 0 0 0 0 0
589 705 820 895 1027 875 534 535 638 545 301 133 96 78 53 61 39 17 27 17 18 12 2 0 1 4 0 0 0 0 0 0
621 746 839 961 889 692 513 369 488 268 125 64 58 52 55 58 49 28 37 10 2 4 3 3 4 0 0 0 0 0 0 0
607 706 681 742 692 604 401 239 200 72 61 62 60 51 51 53 45 49 19 5 3 7 3 0 0 0 0 0 0 0 0 1
6 6 11 28 66 149 221 138 84 70 75 66 58 69 78 74 55 42 39 28 11 4 0 0 0 0 0 0 0 0 0 3
0 0 0 0 0 3 11 30 77 79 75 73 71 86 67 47 44 47 32 22 0 0 0 0 0 0 0 0 0 0 0 3
0 0 0 0 0 0 0 5 45 62 55 72 83 53 56 62 57 30 23 0 0 0 0 0 0 0 0 0 0 0 1 5

GFSFLT1_con_mucape_042.txt.gz
CAPE
174 77 83 14 42 94 111 161 223 154 0 0 11 245 252 199 24 25 0 1 2 4 0 0 7 8 0 0 0 0 0 0
268 217 92 75 95 157 123 248 289 191 11 7 123 294 252 253 187 84 25 0 0 0 0 3 0 0 0 0 0 0 0 0
458 272 262 183 165 185 197 182 330 356 51 16 76 177 328 239 399 147 5 0 2 1 0 0 0 0 0 0 0 0 0 0
622 519 365 355 294 262 253 312 419 370 91 35 88 171 291 285 181 40 7 25 49 10 0 0 0 0 0 0 0 0 0 0
639 676 564 479 427 335 311 442 462 398 326 110 172 254 307 324 97 15 14 53 59 1 0 0 0 0 0 0 0 0 5 0
768 655 704 507 443 422 443 530 572 449 269 176 227 306 277 83 23 21 64 77 53 0 0 0 0 0 0 1 5 26 17 0
511 603 689 627 400 456 552 561 556 347 162 209 250 251 164 105 60 69 60 69 33 19 1 0 0 0 6 23 19 0 0 0
576 376 622 625 513 448 576 644 568 403 288 288 251 205 158 201 105 56 55 35 11 8 8 7 5 3 10 4 19 10 1 0
575 439 400 547 546 536 592 667 753 533 351 287 319 188 337 335 166 117 99 27 30 36 52 11 8 7 4 5 0 0 0 0
186 454 405 348 401 428 469 504 583 563 385 408 384 571 535 262 95 76 69 45 55 94 22 30 12 1 6 2 0 1 0 0
97 187 314 341 412 442 375 459 434 486 529 468 434 609 443 320 124 86 65 71 71 65 40 9 5 9 7 2 2 0 0 0
154 296 402 581 583 525 525 609 761 681 603 565 554 514 425 237 275 101 71 68 53 53 61 19 13 1 2 0 1 0 0 0
361 466 481 563 564 619 643 809 899 745 648 634 608 574 488 240 55 74 72 50 37 17 26 27 32 10 1 0 0 0 0 0
574 662 699 752 739 798 885 949 1026 784 668 622 514 474 272 59 60 50 42 47 41 6 10 16 3 5 1 1 0 0 0 0
331 455 575 690 745 728 706 762 746 629 465 325 274 105 55 44 45 43 30 25 6 2 0 1 3 0 0 0 0 0 0 0
343 426 528 558 613 689 770 717 575 541 432 266 72 57 52 51 51 50 49 12 24 5 3 1 0 0 0 0 0 0 0 0
54 30 3 0 0 0 11 119 184 198 150 85 67 68 49 34 57 39 19 0 3 0 12 0 0 0 0 0 0 0 0 0
0 0 0 0 0 0 0 0 0 0 27 62 58 50 68 71 60 63 48 17 8 0 0 0 0 0 0 0 0 0 0 0
0 0 0 0 0 0 0 0 0 0 0 31 53 46 50 37 35 22 34 12 0 0 0 0 0 0 0 0 0 0 0 0

GFSFLT1_con_mucape_045.txt.gz
CAPE
135 190 71 37 47 38 34 115 235 259 14 3 7 31 134 273 201 119 77 78 64 44 31 33 33 19 15 3 0 0 0 0
205 162 241 102 104 155 166 212 216 224 46 16 22 32 48 222 161 76 47 26 2 0 12 3 3 7 0 0 0 0 0 0
333 295 224 220 127 151 181 205 193 240 78 27 20 41 68 275 188 127 95 39 18 9 19 0 0 0 0 0 0 0 0 0
521 401 305 241 205 148 216 221 222 310 223 24 2 0 188 271 138 169 42 37 13 12 5 0 0 0 0 0 0 0 0 0
707 695 528 401 345 246 200 226 157 204 364 207 24 30 65 119 179 85 62 72 3 5 21 4 0 0 0 0 0 0 0 0
720 873 841 598 580 309 272 204 148 126 323 366 84 39 16 49 208 130 60 41 4 32 30 9 0 0 0 0 0 0 0 0
535 837 921 849 622 393 345 180 217 222 385 446 382 278 65 148 225 215 93 53 42 34 32 17 7 0 0 1 0 0 0 0
494 612 774 817 685 679 450 348 249 356 525 570 484 301 240 218 305 221 271 108 37 44 32 14 7 3 7 0 3 0 0 0
516 569 675 760 676 770 676 439 387 499 545 625 476 368 317 258 240 153 137 109 53 46 23 18 18 44 1 0 0 0 3 0
14 294 702 732 638 655 713 634 511 527 619 635 573 538 383 307 380 315 275 122 59 65 49 47 52 49 30 1 6 0 1 0
22 55 110 274 567 476 536 609 600 585 599 612 598 526 423 306 303 281 259 79 53 58 58 48 50 54 48 20 15 10 0 0
79 210 238 330 379 454 527 466 424 494 619 651 570 497 409 346 310 335 226 93 70 66 62 67 59 26 17 9 6 4 0 0
178 367 484 431 447 462 463 442 380 534 644 563 557 420 321 335 301 240 181 79 64 65 71 34 18 6 20 17 0 0 0 0
264 357 443 533 487 486 498 526 597 572 583 557 476 371 280 232 163 104 70 60 59 65 60 21 0 3 1 6 0 0 0 0
297 491 606 667 733 780 797 844 859 826 710 565 418 321 202 115 74 53 38 32 43 48 40 5 7 4 0 0 0 0 0 0
189 241 357 468 554 612 674 656 623 591 505 401 306 184 74 60 59 26 50 24 18 60 3 7 6 0 0 0 0 0 0 0
24 85 121 107 82 54 0 0 11 28 45 53 80 82 62 19 40 8 30 34 10 3 0 0 0 0 0 0 0 0 0 0
0 0 0 0 0 0 0 0 0 0 0 0 0 1 2 5 4 11 18 24 2 7 0 0 0 0 0 0 0 0 0 0
0 0 0 0 0 0 0 0 0 0 0 0 0 0 0 8 13 25 25 19 20 0 0 0 0 0 0 0 0 0 0 0

GFSFLT1_con_mucape_048.txt.gz
CAPE
207 215 226 148 98 107 195 250 441 589 404 176 6 131 272 612 694 579 417 182 67 55 50 26 5 12 8 7 6 0 0 0
314 139 152 159 173 215 206 374 520 664 445 100 2 76 284 632 662 532 325 70 44 48 5 0 3 0 0 2 0 0 0 0
403 458 309 214 201 238 248 258 369 764 571 173 41 23 165 311 501 489 305 105 0 1 1 0 8 0 0 0 0 0 0 0
657 508 547 588 356 435 306 260 395 682 645 382 113 114 300 418 350 157 147 125 82 14 8 3 7 3 0 0 0 0 0 0
842 831 816 668 639 386 411 430 522 738 839 600 230 70 211 406 534 309 117 99 26 49 6 2 3 6 1 0 0 0 0 0
783 1053 1129 1034 809 771 504 475 555 723 926 929 555 187 142 517 622 308 35 67 96 94 6 3 9 34 17 0 0 0 0 1
853 910 1176 1308 1211 1043 1040 716 688 744 836 883 951 739 442 509 442 322 59 83 83 49 48 25 25 38 33 13 0 2 0 0
1170 1073 1319 1470 1565 1471 1356 1096 885 816 845 861 1005 980 886 630 410 325 142 127 152 266 263 84 28 37 16 6 2 11 1 1
1126 1117 1249 1577 1737 1780 1640 1135 989 917 962 919 1065 1009 737 758 621 421 208 275 175 212 142 66 45 32 14 8 27 4 0 0
617 825 1149 1457 1744 1849 1764 1584 1275 1061 950 919 746 559 496 614 531 339 233 382 188 83 69 40 50 32 28 39 23 8 1 0
184 321 660 1127 1466 1600 1626 1589 1381 1221 1062 942 803 577 535 533 499 446 256 152 84 83 62 32 30 52 56 15 44 19 1 2
426 461 490 632 920 1179 1312 1345 1335 1269 1201 1172 999 678 743 537 407 351 269 202 156 122 71 19 28 73 39 12 4 1 0 0
673 842 886 827 853 936 1065 1154 1211 1240 1274 1194 1101 820 612 439 320 225 182 117 112 120 91 60 72 38 21 49 0 0 0 0
769 998 1149 1183 1151 1100 1107 1146 1157 1151 1106 794 535 487 440 276 151 50 49 55 65 59 44 54 47 16 26 28 11 0 0 0
813 1037 1145 1174 1249 1318 1330 1149 1006 739 695 665 636 515 393 304 169 80 66 51 50 31 30 67 36 17 8 3 3 0 0 0
592 939 1127 1222 1247 1189 1024 877 810 745 659 635 461 373 246 184 109 41 22 12 4 19 15 16 6 3 1 0 0 0 0 0
100 210 323 446 540 595 497 362 189 101 18 9 9 11 19 25 43 44 0 0 3 1 3 1 5 1 0 0 0 0 0 0
28 107 124 123 97 34 10 3 0 0 0 0 0 0 0 0 0 0 0 0 4 7 0 0 0 0 0 0 0 0 0 0
0 0 0 0 0 0 0 0 0 0 0 0 0 0 0 0 0 0 0 0 0 5 0 0 0 0 0 0 0 0 0 1

GFSFLT1_con_mucape_051.txt.gz
CAPE
215 189 53 14 44 79 90 92 114 235 367 165 50 160 155 208 379 545 619 741 666 624 337 251 83 19 0 0 4 0 0 0
338 205 199 132 173 192 217 322 400 386 253 118 0 135 139 195 378 554 603 606 499 458 305 202 61 8 1 0 0 0 0 0
332 309 309 274 258 243 260 240 267 555 419 175 40 15 53 90 277 628 559 522 419 374 303 94 36 10 0 0 0 1 22 0
606 245 274 391 343 373 385 410 528 569 576 397 103 8 64 101 271 492 558 599 463 277 247 84 36 12 8 3 0 7 17 0
711 739 486 311 323 447 415 410 438 446 522 509 288 69 8 83 244 419 532 401 194 67 78 35 42 4 4 8 4 2 0 0
766 809 781 747 680 711 762 476 383 410 573 621 660 322 109 188 430 676 854 519 191 103 51 55 81 2 5 8 4 3 1 0
565 813 869 922 919 1092 991 572 480 484 659 789 970 743 428 152 700 867 811 634 331 84 84 94 87 34 12 9 7 11 8 0
616 681 924 1132 1342 1318 1323 769 507 555 674 855 987 992 861 672 535 977 687 506 260 109 38 71 56 104 61 35 19 16 4 4
713 738 798 1134 1551 1514 1353 1216 1045 702 568 870 1256 1124 1518 1277 1172 978 861 738 570 199 213 162 135 68 66 38 27 26 11 12
552 869 1003 1140 1769 2061 2015 1592 1474 1169 804 630 484 841 1631 1434 1373 1376 1160 697 267 151 254 186 78 48 29 23 9 14 16 14
318 700 970 1174 1549 2219 2265 2076 1777 1531 1232 1159 1055 1274 1375 1163 1078 1098 680 426 299 201 209 147 110 35 13 2 17 42 8 24
418 453 620 892 1279 1799 2198 2250 2111 1950 1762 1622 1475 1155 1095 775 698 670 421 318 331 268 205 200 73 33 5 10 3 16 31 10
754 765 716 844 1134 1487 1838 1972 1958 1776 1698 1665 1509 1139 1258 1167 1042 850 964 209 62 44 60 68 18 56 47 4 6 7 16 39
766 1183 1173 1123 1201 1341 1503 1582 1555 1566 1633 1589 1383 1256 1037 1062 885 708 491 283 194 123 39 31 46 26 54 15 6 17 2 0
374 820 1246 1359 1386 1353 1409 1432 1444 1457 1374 1163 1072 724 556 461 406 321 205 138 115 79 40 35 27 29 25 10 11 0 0 0
510 654 970 1225 1440 1547 1600 1207 1103 736 571 506 487 478 442 353 298 265 147 111 91 65 39 10 14 9 6 5 3 5 1 0
442 892 1227 1427 1501 1489 1026 704 590 458 456 388 198 116 11 2 0 0 0 0 0 0 0 0 1 0 0 0 0 0 0 0
451 671 640 547 673 585 536 425 230 92 36 16 0 0 0 0 0 0 0 0 0 0 0 0 1 0 0 0 0 0 0 0
45 18 60 221 302 262 84 44 16 1 0 0 0 0 0 0 0 0 0 0 0 0 0 0 0 0 0 0 0 0 0 0

GFSFLT1_con_mucape_054.txt.gz
CAPE
55 8 1 2 0 0 0 0 0 0 0 0 18 93 137 43 7 178 360 404 516 425 345 355 93 35 12 0 0 0 0 0
61 3 0 0 0 2 0 0 0 0 38 21 10 57 22 0 19 283 463 408 450 407 417 263 97 44 9 1 0 0 0 0
159 27 0 7 4 0 0 0 0 0 15 15 0 0 18 6 33 383 520 499 496 474 393 163 112 64 18 0 0 0 0 0
193 162 17 30 97 75 42 29 3 0 58 102 56 0 1 21 53 271 363 333 316 361 318 198 86 47 1 0 0 0 0 4
388 236 239 153 272 210 199 224 222 188 284 288 177 2 0 3 0 195 346 486 382 334 258 224 140 19 1 6 0 3 14 52
568 311 300 363 299 291 279 321 283 302 419 513 323 126 17 0 104 133 412 538 437 349 201 103 33 18 20 39 2 5 7 41
712 598 339 316 289 428 400 422 364 340 579 661 534 378 188 103 202 316 579 503 318 180 115 82 44 37 50 59 46 39 50 7
592 737 703 537 380 360 552 530 477 416 425 640 501 709 571 337 307 451 564 540 376 287 166 56 37 56 62 68 48 32 61 13
456 621 807 824 830 798 609 592 579 542 499 691 770 591 735 594 526 437 435 507 408 272 180 152 124 96 131 64 15 44 48 19
488 538 657 911 1003 1103 1140 966 658 483 567 612 485 618 678 549 480 621 573 569 483 423 259 255 117 126 147 143 44 36 36 17
290 479 708 943 1237 1395 1462 1276 1141 891 556 555 436 446 491 361 140 936 971 617 487 398 348 214 166 164 232 73 63 30 22 1
370 507 722 936 1159 1505 1876 1685 1494 1330 949 525 449 334 274 547 820 1072 1085 762 545 312 287 210 126 183 95 88 54 24 26 0
593 576 587 678 1238 1658 2001 1950 1883 1588 1104 713 927 961 1020 906 788 876 550 1112 581 487 147 19 69 120 61 54 27 16 14 5
711 871 863 898 1042 1378 1986 2098 1983 1673 1140 812 941 998 890 692 800 701 553 631 521 477 110 38 112 75 49 48 26 17 14 13
565 939 1043 1135 1257 1419 1610 1721 1707 1491 1086 885 1031 1036 798 986 806 729 600 559 474 341 155 170 34 34 12 7 0 10 7 11
235 700 1139 1298 1359 1404 1465 1337 1264 1216 1051 1050 948 836 829 933 692 594 345 231 206 175 34 4 3 2 0 0 6 3 5 0
39 434 805 1158 1275 1358 1306 1320 1242 1108 1027 752 590 465 355 347 189 54 11 0 0 0 0 0 0 0 0 0 2 0 0 0
100 499 893 1239 1368 1368 1039 806 612 467 555 464 303 221 53 13 0 0 0 0 0 0 0 0 0 0 0 0 0 0 0 0
376 758 993 889 1036 670 600 260 211 224 201 71 31 11 0 0 0 0 0 0 0 0 0 0 0 0 0 0 0 0 0 0

GFSFLT1_con_mucape_057.txt.gz
CAPE
0 0 0 0 0 0 0 0 10 5 9 9 7 5 13 63 30 50 135 193 176 170 100 224 132 67 19 14 5 0 0 0
0 0 0 0 0 0 0 0 0 0 8 0 0 0 0 29 40 12 68 149 237 293 249 193 135 37 23 3 0 0 0 0
0 0 0 0 0 0 0 0 0 0 0 0 0 0 0 0 0 0 115 164 213 293 272 220 188 59 46 0 0 0 0 0
43 0 0 0 0 0 0 0 0 0 0 0 0 0 0 0 0 0 196 254 208 264 284 262 181 155 79 0 0 0 0 1
201 0 0 0 0 0 0 0 0 0 0 0 0 0 0 0 0 0 46 200 244 272 377 263 204 141 76 14 0 4 1 2
287 199 0 0 0 8 0 0 0 0 0 0 0 0 0 0 0 0 17 131 204 251 287 322 235 159 75 35 28 29 37 36
324 289 140 1 1 1 22 9 0 0 0 0 12 84 29 7 0 0 46 207 276 267 288 298 225 178 135 73 44 54 51 45
347 302 353 193 6 100 68 38 35 52 40 29 66 194 204 85 28 0 40 258 330 343 299 250 251 189 109 65 72 77 33 12
347 356 389 383 254 122 157 64 56 84 102 124 212 204 240 219 120 36 97 202 257 374 331 232 138 127 69 88 100 79 64 13
359 405 416 423 387 335 244 131 30 120 122 190 309 257 222 285 278 241 263 206 273 324 271 251 150 123 97 89 77 76 45 22
243 467 484 460 420 408 332 285 211 139 230 202 189 354 311 329 491 455 239 325 288 362 285 230 214 195 204 99 90 90 71 4
154 215 373 544 480 434 470 466 478 477 359 279 298 298 523 532 500 563 360 377 640 352 253 245 238 222 141 147 91 70 58 46
254 277 271 331 513 545 616 551 487 512 454 311 228 138 251 188 92 350 403 770 883 627 448 341 153 24 22 76 74 75 57 42
382 457 480 458 683 697 822 852 758 669 577 413 379 343 99 72 319 681 897 1123 737 473 330 175 267 33 0 11 40 45 43 24
361 533 610 619 698 1170 1374 1428 1213 674 585 758 727 618 455 448 565 569 597 437 243 173 162 174 181 180 39 14 34 19 17 12
366 589 729 849 974 1242 1439 1198 1124 1112 1110 900 922 863 703 596 448 326 272 300 209 160 158 82 5 6 14 6 3 12 0 3
307 552 759 950 1115 1153 1135 1168 1143 996 1108 920 812 734 802 646 455 393 308 153 107 24 10 0 0 3 0 0 0 1 0 0
0 538 868 1005 1158 1162 1193 1166 993 865 908 848 655 501 448 312 163 96 24 0 0 0 0 0 0 0 0 0 0 0 0 0
400 429 846 997 1056 1111 1143 1041 1093 741 553 533 429 329 226 72 13 0 0 0 0 0 0 0 0 0 0 0 0 0 0 0

GFSFLT1_con_mucape_060.txt.gz
CAPE
0 0 0 2 1 3 0 2 1 0 4 3 27 10 1 7 14 25 87 112 166 154 93 100 121 93 23 9 0 0 0 0
0 0 0 0 0 0 0 0 0 0 9 7 1 0 0 11 12 8 13 53 105 143 108 73 127 114 75 37 18 12 5 0
0 0 0 0 0 0 0 0 0 0 0 1 3 10 8 2 10 8 0 52 105 99 98 135 132 157 85 62 29 25 9 0
0 0 0 0 0 0 0 0 0 0 0 0 0 0 1 0 0 0 0 0 15 68 104 157 148 136 128 58 39 29 5 0
7 0 0 0 0 0 0 0 0 0 0 0 0 0 0 0 0 0 0 0 5 12 63 130 184 120 128 81 57 58 13 16
77 32 0 0 0 0 0 0 0 0 0 0 0 0 0 0 0 0 0 0 0 69 97 102 103 131 120 143 95 53 34 48
184 169 23 0 0 0 0 0 0 0 0 0 0 0 0 0 0 0 0 0 0 43 110 170 155 139 165 162 139 44 44 46
229 233 242 60 0 0 0 0 0 0 0 0 0 0 0 0 0 0 0 0 0 27 64 104 124 128 208 228 166 67 63 63
261 257 301 292 96 0 0 0 0 0 0 0 0 0 0 9 6 27 6 7 28 58 91 127 194 121 214 191 180 107 78 99
312 255 296 348 339 228 59 0 0 0 0 0 1 0 0 32 102 158 64 42 37 114 137 162 203 132 81 145 137 95 94 121
213 261 288 359 366 388 309 213 166 27 2 0 3 26 28 65 110 153 161 172 147 200 221 215 278 208 198 163 89 107 120 60
94 200 289 326 401 402 387 304 221 186 92 34 49 71 84 128 145 160 156 154 122 187 170 218 236 200 150 121 174 122 112 43
36 147 250 319 397 410 407 381 332 303 204 101 45 46 94 193 286 196 91 18 230 234 351 259 245 259 212 248 103 121 36 19
55 76 107 267 342 428 486 482 401 251 185 126 75 70 61 136 183 234 185 1 33 215 490 369 606 194 64 87 11 16 49 20
70 176 208 290 456 553 585 565 516 370 256 177 175 169 206 231 198 349 337 126 221 499 395 412 250 132 98 48 14 5 17 13
90 170 203 467 829 800 813 756 686 584 478 373 437 336 207 244 353 291 198 387 400 742 226 116 184 151 42 55 5 2 13 7
97 174 218 685 862 950 844 933 890 899 823 606 443 535 504 428 456 268 356 480 591 113 169 87 151 86 13 2 6 3 0 0
59 167 291 668 781 949 1184 1253 1141 1025 901 763 639 619 539 474 462 630 429 110 117 83 78 29 6 8 4 2 0 0 0 0
4 160 304 521 695 747 835 912 881 791 731 661 577 606 436 371 319 117 90 79 41 2 3 0 0 0 0 0 0 0 0 0